Location: Bovenkerk
(52.2915°N, 4.8336°E)
Time: 00:40:29
(UTC+00:00)

N. Korean satellite - Pass Details

Date: 10 March 2021
Orbit: 453 x 499 km, 97.2° (Epoch: 11 April)

Event Time Altitude Azimuth Distance (km) Brightness Sun altitude
Rises 05:21:38 0° 12° (NNE) 2,544 10.4 -7.7°
Reaches altitude 10° 05:23:41 10° 12° (NNE) 1,668 9.5 -7.3°
Maximum altitude 05:27:17 83° 284° (WNW) 496 6.5 -6.8°
Drops below altitude 10° 05:30:54 10° 197° (SSW) 1,679 9.1 -6.2°
Sets 05:32:58 0° 197° (SSW) 2,562 10.0 -5.9°
